Melilla, Spain

12:47 AM CEST on July 30, 2016 (GMT +0200)
Melilla

Weather History for GEML - May, 2013

Change the Weather History Date:

Friday, May 24, 2013

  Actual Average Record
Temperature  
Mean Temperature 74 °F -  
Max Temperature 80 °F 79 °F 89 °F (2003)
Min Temperature 69 °F 66 °F 59 °F (2012)
Cooling Degree Days 10    
Growing Degree Days 24 (Base 50)    
Moisture  
Dew Point 51 °F    
Average Humidity 42    
Maximum Humidity 60    
Minimum Humidity 30    
Precipitation  
Precipitation 0.00 in 0.02 in - ()
Sea Level Pressure  
Sea Level Pressure 29.99 in    
Wind  
Wind Speed 8 mph ()    
Max Wind Speed 16 mph    
Max Gust Speed -    
Visibility 19.0 miles    
Events      
Averages and records for this station are not official NWS values.
T = Trace of Precipitation, MM = Missing Value Source: Averaged Metar Reports

Daily Weather History Graph

Daily Weather History Graph

Search for Another Location

Airport or City:

Trip Planner

Search our weather history database for the weather conditions in past years. The results will help you decide how hot, cold, wet, or windy it might be!

Date:

Astronomy

May. 24, 2013 Rise Set
Actual Time 7:01 AM CEST 9:15 PM CEST
Civil Twilight 6:32 AM CEST 9:44 PM CEST
Nautical Twilight 5:57 AM CEST 10:20 PM CEST
Astronomical Twilight 5:19 AM CEST 10:58 PM CEST
Moon 8:42 PM CEST (5/24) 6:19 AM CEST (5/24)
Length of Visible Light 15h 11m
Length of Day
14h 14m
Waxing Gibbous, 99% of the Moon is Illuminated
May 24
Waxing Gibbous
May 25
Full
May 31
Last Quarter
Jun 8
New
Jun 16
First Quarter

Hourly Weather History & Observations

Time (CEST) Temp. Dew Point Humidity Pressure Visibility Wind Dir Wind Speed Gust Speed Precip Events Conditions
6:00 AM 71.6 °F 48.2 °F 43% 29.95 in - WSW 9.2 mph - N/A   Clear
6:30 AM 69.8 °F 46.4 °F 43% 29.95 in - WSW 8.1 mph - N/A   Clear
7:00 AM 71.6 °F 46.4 °F 41% 29.95 in - WSW 6.9 mph - N/A   Clear
7:30 AM 69.8 °F 46.4 °F 43% 29.98 in - Variable 2.3 mph - N/A   Clear
8:00 AM 72 °F 52 °F 39% 29.97 in 19 mi WNW 2.3 mph - -  
8:00 AM 69.8 °F 50.0 °F 49% 29.98 in - Variable 1.2 mph - N/A   Clear
8:30 AM 71.6 °F 50.0 °F 46% 29.98 in - WNW 8.1 mph - N/A   Clear
9:00 AM 71.6 °F 50.0 °F 46% 29.98 in - West 9.2 mph - N/A   Clear
9:30 AM 73.4 °F 50.0 °F 44% 29.98 in - West 5.8 mph - N/A   Clear
10:00 AM 75.2 °F 50.0 °F 41% 30.01 in - WNW 5.8 mph - N/A   Clear
10:30 AM 77.0 °F 51.8 °F 41% 30.01 in - WNW 5.8 mph - N/A   Clear
11:00 AM 77.0 °F 51.8 °F 41% 30.01 in - NW 5.8 mph - N/A   Clear
11:30 AM 78.8 °F 50.0 °F 36% 30.01 in - NW 6.9 mph - N/A   Clear
12:00 PM 80.6 °F 48.2 °F 32% 30.01 in - WNW 5.8 mph - N/A   Clear
12:30 PM 80.6 °F 46.4 °F 30% 30.01 in - NW 5.8 mph - N/A   Clear
1:00 PM 80.6 °F 46.4 °F 30% 30.01 in - WNW 8.1 mph - N/A   Clear
1:30 PM 78.8 °F 53.6 °F 42% 30.01 in - WNW 9.2 mph - N/A   Clear
2:00 PM 77 °F 56 °F 37% 29.99 in 19 mi WNW 10.4 mph - -  
2:00 PM 78.8 °F 53.6 °F 42% 30.01 in - WNW 10.4 mph - N/A   Clear
2:30 PM 77.0 °F 53.6 °F 44% 30.01 in - West 11.5 mph - N/A   Clear
3:30 PM 77.0 °F 50.0 °F 39% 29.98 in - West 13.8 mph - N/A   Clear
4:00 PM 77.0 °F 50.0 °F 39% 29.98 in - West 13.8 mph - N/A   Clear
4:30 PM 77.0 °F 48.2 °F 36% 29.98 in - West 15.0 mph - N/A   Clear
5:00 PM 77.0 °F 51.8 °F 41% 29.98 in - West 15.0 mph - N/A   Clear
5:30 PM 75.2 °F 50.0 °F 41% 29.98 in - West 16.1 mph - N/A   Clear
6:00 PM 75.2 °F 48.2 °F 38% 29.98 in - West 13.8 mph - N/A   Clear
6:30 PM 73.4 °F 51.8 °F 47% 29.98 in - West 13.8 mph - N/A   Clear
7:30 PM 71.6 °F 55.4 °F 57% 29.98 in - West 15.0 mph - N/A   Clear
8:00 PM 71 °F 56 °F 50% 29.98 in 19 mi West 13.8 mph - -  
8:00 PM 71.6 °F 55.4 °F 57% 29.98 in - West 13.8 mph - N/A   Clear
8:30 PM 69.8 °F 55.4 °F 60% 29.98 in - West 11.5 mph - N/A   Clear